Погода в Когалыме

Погода в Когалыме : погода сейчас, прогноз погоды и архив. Всё, что Вы хотите узнать о погоде в Когалыме!

Хотите узнать прогноз погоды в Когалыме? Тогда Вам сюда: Погода в Когалыме

Поиск расширенной информации на нашем сайте:

Другие новости

Новости СМИ2

Главная страница сайта

Новости сайта

03.07.2017

Напоминаем, что на нашем специализированном сайте Метеоцентр.Азия вы можете получить высокодетализированные автоматические прогнозы погоды по пунктам России, СНГ и мира в авиационном формате (включающие направление и скорость ветра, видимость, явления погоды, количество и форму облачности, нижнюю и верхнюю границу облачности).


Погода в Когалыме - сегодня

Время (UTC), дата Ветер
(°,м/с) 
Видим.   Явления Облачность Т
(°С)
Тd
(°С)
f(%) Тe
(°С)
Pmin
(гПа)
dP
(гПа)
Po
(мм)
O2
(г/м3)
Тmin Tmax R s Состояние
почвы
03 19.11.17 250 (З) 4400 м  слаб. ливневой снег{туман}  10/6 180 м кучево-дожд., средняя 
[Cb cap|As trans]
-16.1 -18 85 -16  1017.1  1.4  756  325  -20.4    0.2  17  равномерный
сухой снег
100% 
06 19.11.17 250 (З) 5000 м  слаб. ливневой снег{туман}  8/6 240 м кучево-дожд., средняя 
[Cb cap|Ac trans]
-16 -17.9 85 -16  1018.5  1.4  757  326           
09 19.11.17 тихо ()   20000 м  в посл. час ливневой снег  6/6 500 м 
[Sc]
-15.5 -17.4 85 -16  1019.8  1.3  758  325           
12 19.11.17 тихо ()   10 км  слаб. ливневой снег  10/8 420 м кучево-дожд., средняя 
[Cb cap|As op]
-15.8 -17.7 85 -16  1021.1  1.3  759  326           
15 19.11.17 тихо ()   9000 м  слаб. ливневой снег  10/8 360 м кучево-дожд., средняя 
[Cb cap|As op]
-12.6 -14.6 85 -13  1021.7  0.7  760  322    -12.6  0.5     
18 19.11.17 140 (ЮВ) 10 км  слаб. ливневой снег  10/8 330 м кучево-дожд., средняя 
[Cb cap|As op]
-11.6 -13.6 85 -11  1021.8  0.1  760  321           
21 19.11.17 140 (ЮВ) 10 км  слаб. снег{ливн. осадки}  10/8 1200 м средняя 
[Sc|As op]
-10.9 -12.9 85 -11  1021.5  -0.2  759  320           
00 20.11.17 150 (ЮВ) 20000 м  {ливн. осадки, снег}  10/8 240 м средняя 
[Sc|As op]
-9.8 -11.5 87 -10  1021.1  -0.4  759  318           
03 20.11.17 170 (Ю) 10 км  слаб. снег  10/6 180 м средняя 
[Sc|As op]
-8.6 -9.7 92 -8  1020.3  -0.7  759  317  -12.6    0.3  18  равномерный
сухой снег
100% 
06 20.11.17 180 (Ю) 1500 м  ливневой снег  10/6 500 м кучево-дожд., средняя 
[Cb cap|As op]
-5.9 -6.7 94 -7  1019.8  -0.4  758  313           
09 20.11.17 230 (ЮЗ) 20000 м  в посл. час ливневой снег  10/8 150 м кучево-дожд., средняя 
[Cb cap|As op]
-2.5 -3.1 96 -5  1019.7  758  309           
12 20.11.17 230 (ЮЗ) 20000 м  {ливн. осадки}  10/8 150 м кучево-дожд., средняя 
[Cb cap|As op]
-2.6 -2.9 98 -5  1020.4  0.7  759  309           
15 20.11.17 230 (ЮЗ) 10 км  слаб. ливневой снег  10/6 210 м кучево-дожд., средняя 
[Cb cap|As op]
-2.8 -3.5 95 -6  1020.9  0.5  759  310    -2.4  0.8     
18 20.11.17 250 (З) 20000 м  {ливн. осадки}  10/6 100 м средняя 
[St|As op]
-3.1 -3.8 95 -4  1021.7  0.8  760  310           
21 20.11.17 230 (ЮЗ) 20000 м    10/10 120 м 
[St]
-2.7 -3.4 95 -4  1022.3  0.6  760  310           
00 21.11.17 220 (ЮЗ) 20000 м    10/10 120 м 
[St]
-3.5 -4.3 94 -6  1022.6  0.3  761  311           
03 21.11.17 160 (Ю) 20000 м    10/10 400 м 
[Sc]
-3 -3.7 95 -5  1021.5  -1.1  760  310  -3.5    0.0  18  равномерный
сухой снег
100% 
06 21.11.17 160 (Ю) 1500 м  ливневой снег  10/10 300 м кучево-дожд. 
[Cb cap]
-2.6 -3.3 95 -5  1019.3  -2.2  758  309           
09 21.11.17 170 (Ю) 20000 м  в посл. час ливневой снег  10/10 270 м кучево-дожд. 
[Cb cap]
-2.1 -3 94 -5  1017.2  -2.1  756  308           
12 21.11.17 250 (З) 20000 м  {ливн. осадки}  8/8 240 м кучево-дожд. 
[Cb cap]
-1.4 -2.6 92 -5  1017.2  756  307           
15 21.11.17 270 (З) 20000 м    9/9 270 м кучево-дожд. 
[Cb cap]
-0.8 -1.4 96 -4  1018.5  1.3  757  306    -0.8     
18 21.11.17 260 (З) 4{11}  20000 м    10/10 300 м 
[Sc]
-0.8 -1.7 94 -3  1020.9  2.4  759  307           
21 21.11.17 260 (З) 20000 м    10/10 210 м 
[Sc]
-1 -1.6 96 -4  1022.8  1.9  761  308           
00 22.11.17 230 (ЮЗ) 20000 м    8/6 330 м средняя 
[Sc|Ac trans]
-2.8 -3.2 97 -2  1023.9  761  310           
03 22.11.17 200 (Ю) 20000 м    8/8 240 м 
[Sc]
-2.1 -2.4 98 -4  1024.8  0.9  762  310  -2.8      20  равномерный
сухой снег
100% 
Время (UTC), дата Ветер
(°,м/с) 
Видим.   Явления Облачность Т
(°С)
Тd
(°С)
f(%) Тe
(°С)
Pmin
(гПа)
dP
(гПа)
Po
(мм)
O2
(г/м3)
Тmin Tmax R s Состояние
почвы

Для получения пояснительной информации подведите курсор к названию столбца.

ПОГОДА в Когалыме - архив

Всё, что Вы хотите узнать о погоде в Когалыме - удобно и подробно!

Выберите нужную дату (начиная с 1 января 2015* года) и нажмите кнопку "Найти".
Будут отображены архивные сводки погоды по пункту Когалым, начиная с указанной даты.


Отображать данные в формате CSV (для использования в таблицах Excel)


Внимание! Наш архив погоды предназначен исключительно для личного некоммерческого использования в познавательных целях. Если Вам необходимы официальные справки о состоянии погоды (для производственных, юридических, коммерческих и т.п. целей), обращайтесь в органы Росгидромета.

*Примечание: данная дата относится к архиву по метеостанциям СССР (Россия, СНГ, Балтия).
Архив по метеостанциям Зарубежной Европы и Азии (кроме Китая) хранится 10 дней, по другим регионам земного шара (Китай, Африка, Америка, Австралия, Океания) - 1 день.

Когалым - район местоположения метеостанции


Название, широта, долгота, высота метеостанции:
Когалым 62.2°ш. 74.5°д. 67 м над ур. моря [Российская Федерация]

Дополнительная информация

В oтличие oт бoльшинства пoгoдных сайтoв мы публикуем пoдрoбную метеoинфoрмацию в детальнoм прoфессиoнальнoм фoрмате.

Характеристики температуры и влажнoсти вoздуха измеряются на высoте 2 м в тени вдали oт зданий и деревьев.
Скoрoсть ветра измеряется на высoте 10 м (на урoвне рoста челoвека скoрoсть ветра ниже в 1.5-2 раза). Если метеoстанция нахoдится в гoрoде или в лесу, тo скoрoсть ветра занижена на 2-4 м/с пo сравнению с oткрытым местoм. Скoрoсть ветра над акватoриями крупных рек и oзёр, а также на вершинах хoлмoв на 2-5 м/с выше, чем в oбычных услoвиях.
Атмoсфернoе давление в разных тoчках местнoсти мoжет значительнo oтличаться oт давления на метеoстанции, в зависимoсти oт услoвий рельефа (при пoдъёме на 10 м давление пoнижается примернo на 1 мм рт.ст.).